Regional Weather Roundup
Issued by NWS

Home | Current Version | Previous Version | Text Only | Print | Product List | Glossary Off
Versions: 1 2 3 4 5 6 7 8 9 10 11 12 13 14 15 16 17 18 19 20 21 22 23 24 25 26 27 28 29 30 31 32 33 34 35 36 37 38 39 40 41 42 43 44 45 46 47 48 49 50

000
ASUS45 KBOU 300207
RWRCO

WEATHER ROUNDUP FOR COLORADO
NATIONAL WEATHER SERVICE DENVER/BOULDER CO
800 PM MDT SUN MAR 29 2015

NOTE: "FAIR" INDICATES FEW OR NO CLOUDS BELOW 12000 FEET WITH NO
SIGNIFICANT WEATHER AND/OR OBSTRUCTIONS TO VISIBILITY.

COZ001>005-013-030-031-300300-
...NORTHWEST COLORADO...

CITY           SKY/WX    TMP DP  RH WIND       PRES   REMARKS
CRAIG          CLEAR     47  21  35 SW8       30.19R
HAYDEN         CLEAR     55  12  18 CALM      30.20S
MEEKER         CLEAR     54  18  24 N6        30.20R
MOUNT WERNER   NOT AVBL
STEAMBOAT SPGS CLEAR     52  16  24 N3        30.22R
WALDEN         MOCLDY    46  10  23 SW8       30.27R
$$

COZ006>008-011-300300-
...WEST CENTRAL VALLEYS...

CITY           SKY/WX    TMP DP  RH WIND       PRES   REMARKS
GRAND JUNCTION CLEAR     63  10  12 N8        30.11S
MONTROSE       CLEAR     62  12  14 CALM      30.18R
EAGLE          CLEAR     57   9  14 SW6       30.21R
RIFLE          CLEAR     61  12  14 W9        30.14R
DELTA          CLEAR     69   4   7 W7        30.13R
NUCLA          CLEAR     59   3  10 W7        30.22R
$$

COZ017>023-064>068-300300-
...SOUTHWEST COLORADO...

CITY           SKY/WX    TMP DP  RH WIND       PRES   REMARKS
DURANGO        CLEAR     62   7  11 W12       30.20R
CORTEZ         CLEAR     56  19  23 SE5       30.19R
PAGOSA SPRINGS CLEAR     53  22  30 CALM      30.27R
TELLURIDE      NOT AVBL
WOLF CREEK PAS NOT AVBL
$$

COZ009-010-012-014-032>034-037-058>063-300300-
...CENTRAL COLORADO...

CITY           SKY/WX    TMP DP  RH WIND       PRES   REMARKS
ASPEN          PTCLDY    48  16  27 SW10      30.26R
BUENA VISTA    PTCLDY    42  14  31 NW8       30.26R
COPPER MTN     PTCLDY    37  -8  14 W17G25    30.45S
BERTHOUD PASS  FAIR      30  25  80 W20G30    30.45S WCI  18
COTTONWOOD PAS PTCLDY    50  -8   9 NW3       30.36R
GUNNISON       CLEAR     55   1  11 N8        30.28S
KREMMLING      CLEAR     50  12  22 W3        30.24S
LEADVILLE      PTCLDY    41   1  18 CALM      30.35R
SALIDA         PTCLDY    53  23  31 SE12G20   30.32R
SUNLIGHT       CLEAR     41  14  33 CALM      30.44S
WILKERSON PASS CLEAR     39  -6  14 W9        30.44S
$$

COZ069>075-300300-
...SAN LUIS VALLEY/SANGRE DE CRISTO MOUNTAINS...

CITY           SKY/WX    TMP DP  RH WIND       PRES   REMARKS
ALAMOSA        CLOUDY    59  11  15 W16G24    30.22R
LA VETA PASS   CLOUDY    39  23  52 S3        30.38R
SAGUACHE       CLEAR     52   0  11 N13       30.24S
$$

COZ035-036-038>040-300300-
...NORTHERN COLORADO FRONT RANGE...

CITY           SKY/WX    TMP DP  RH WIND       PRES   REMARKS
DENVER INTL AP PTCLDY    49  30  48 SE8       30.16R
DMNS CITY PARK   N/A     60  22  23 SE5G15    30.14R
AURORA         NOT AVBL
FRONT RANGE AP PTCLDY    50  32  50 SE8       30.18R
ERIE MUNI ARPT PTCLDY    53  25  33 E6        30.15R
BOULDER MUN AP PTCLDY    54  28  37 N6        30.16R
CENTENNIAL     PTCLDY    54  24  31 S16       30.16R
BROOMFIELD     PTCLDY    57  27  30 NE8       30.16S
FORT COLLINS   MOCLDY    54  25  32 SE7       30.17R
LONGMONT       MOCLDY    55  26  32 CALM      30.17S
$$

COZ041-046-047-076>085-087-088-300300-
...PIKES PEAK/PALMER DIVIDE AND SOUTHERN FOOTHILLS...

CITY           SKY/WX    TMP DP  RH WIND       PRES   REMARKS
COLO. SPRINGS  PTCLDY    51  21  30 SE12      30.24R
A. F. ACADEMY  NOT AVBL
ELLICOTT       CLEAR    N/A N/A N/A S7        30.23S
FALCON         CLEAR     46  20  35 S10       30.26S
FORT CARSON    NOT AVBL
LIMON          CLEAR     45  23  42 S7        30.21R
MONUMENT HILL  CLEAR     45  21  39 S14       30.23R
TRINIDAD       CLOUDY    57  24  28 N3        30.22R
$$

COZ042>045-048>051-090-091-300300-
...NORTHEAST COLORADO...

CITY           SKY/WX    TMP DP  RH WIND       PRES   REMARKS
GREELEY ARPT   PTCLDY    55  21  26 SE6       30.14S
AKRON          CLEAR     50  22  33 S6        30.17S
BURLINGTON     CLEAR     48  19  31 SE7       30.20R
WRAY           CLEAR     54  18  24 SE3       30.16F
STERLING       CLEAR     54  23  30 S3        30.14S
HOLYOKE        NOT AVBL
FORT MORGAN    CLEAR    N/A N/A N/A SE8       30.17R
$$

COZ086-089-092>099-300300-
...SOUTHEAST COLORADO...

CITY           SKY/WX    TMP DP  RH WIND       PRES   REMARKS
PUEBLO         CLEAR     59  23  25 SE8       30.18S
LA JUNTA       CLEAR     58  21  24 SE10      30.18S
LAMAR          CLEAR     52  20  28 SE10      30.17R
SPRINGFIELD      N/A     50  22  33 E5        30.22R
$$


USA.gov is the U.S. government's official web portal to all federal, state and local government web resources and services.